Year,Month,Day,Hour,Minute,Value (Times are PST for temperature in C)
2015,06,26,00,00,19.20
2015,06,26,00,01,19.10
2015,06,26,00,02,19.10
2015,06,26,00,03,19.10
2015,06,26,00,04,19.10
2015,06,26,00,05,19.00
2015,06,26,00,06,19.00
2015,06,26,00,07,18.90
2015,06,26,00,08,18.90
2015,06,26,00,09,18.90
2015,06,26,00,10,18.90
2015,06,26,00,11,18.90
2015,06,26,00,12,18.80
2015,06,26,00,13,18.80
2015,06,26,00,14,18.80
2015,06,26,00,15,18.80
2015,06,26,00,16,18.80
2015,06,26,00,17,18.70
2015,06,26,00,18,18.70
2015,06,26,00,19,18.70
2015,06,26,00,20,18.70
2015,06,26,00,21,18.70
2015,06,26,00,22,18.70
2015,06,26,00,23,18.70
2015,06,26,00,24,18.70
2015,06,26,00,25,18.70
2015,06,26,00,26,18.60
2015,06,26,00,27,18.60
2015,06,26,00,28,18.60
2015,06,26,00,29,18.60
2015,06,26,00,30,18.60
2015,06,26,00,31,18.60
2015,06,26,00,32,18.60
2015,06,26,00,33,18.60
2015,06,26,00,34,18.60
2015,06,26,00,35,18.60
2015,06,26,00,36,18.60
2015,06,26,00,37,18.50
2015,06,26,00,38,18.50
2015,06,26,00,39,18.50
2015,06,26,00,40,18.50
2015,06,26,00,41,18.50
2015,06,26,00,42,18.60
2015,06,26,00,43,18.60
2015,06,26,00,44,18.60
2015,06,26,00,45,18.60
2015,06,26,00,46,18.70
2015,06,26,00,47,18.70
2015,06,26,00,48,18.70
2015,06,26,00,49,18.70
2015,06,26,00,50,18.70
2015,06,26,00,51,18.80
2015,06,26,00,52,18.90
2015,06,26,00,53,18.90
2015,06,26,00,54,18.90
2015,06,26,00,55,18.90
2015,06,26,00,56,19.00
2015,06,26,00,57,19.00
2015,06,26,00,58,19.10
2015,06,26,00,59,19.10
2015,06,26,01,00,19.20
2015,06,26,01,01,19.30
2015,06,26,01,02,19.30
2015,06,26,01,03,19.30
2015,06,26,01,04,19.40
2015,06,26,01,05,19.40
2015,06,26,01,06,19.40
2015,06,26,01,07,19.30
2015,06,26,01,08,19.30
2015,06,26,01,09,19.30
2015,06,26,01,10,19.30
2015,06,26,01,11,19.20
2015,06,26,01,12,19.20
2015,06,26,01,13,19.10
2015,06,26,01,14,19.10
2015,06,26,01,15,19.10
2015,06,26,01,16,19.10
2015,06,26,01,17,19.10
2015,06,26,01,18,19.10
2015,06,26,01,19,19.10
2015,06,26,01,20,19.10
2015,06,26,01,21,19.10
2015,06,26,01,22,19.10
2015,06,26,01,23,19.10
2015,06,26,01,24,19.10
2015,06,26,01,25,19.10
2015,06,26,01,26,19.10
2015,06,26,01,27,19.20
2015,06,26,01,28,19.20
2015,06,26,01,29,19.20
2015,06,26,01,30,19.30
2015,06,26,01,31,19.30
2015,06,26,01,32,19.30
2015,06,26,01,33,19.30
2015,06,26,01,34,19.30
2015,06,26,01,35,19.30
2015,06,26,01,36,19.40
2015,06,26,01,37,19.40
2015,06,26,01,38,19.40
2015,06,26,01,39,19.40
2015,06,26,01,40,19.30
2015,06,26,01,41,19.30
2015,06,26,01,42,19.30
2015,06,26,01,43,19.30
2015,06,26,01,44,19.30
2015,06,26,01,45,19.30
2015,06,26,01,46,19.30
2015,06,26,01,47,19.30
2015,06,26,01,48,19.30
2015,06,26,01,49,19.20
2015,06,26,01,50,19.20
2015,06,26,01,51,19.20
2015,06,26,01,52,19.20
2015,06,26,01,53,19.10
2015,06,26,01,54,19.10
2015,06,26,01,55,19.10
2015,06,26,01,56,19.00
2015,06,26,01,57,19.00
2015,06,26,01,58,18.90
2015,06,26,01,59,18.90
2015,06,26,02,00,18.90
2015,06,26,02,01,18.90
2015,06,26,02,02,18.90
2015,06,26,02,03,18.90
2015,06,26,02,04,19.00
2015,06,26,02,05,19.00
2015,06,26,02,06,19.10
2015,06,26,02,07,19.20
2015,06,26,02,08,19.20
2015,06,26,02,09,19.20
2015,06,26,02,10,19.20
2015,06,26,02,11,19.20
2015,06,26,02,12,19.20
2015,06,26,02,13,19.20
2015,06,26,02,14,19.20
2015,06,26,02,15,19.20
2015,06,26,02,16,19.20
2015,06,26,02,17,19.20
2015,06,26,02,18,19.20
2015,06,26,02,19,19.20
2015,06,26,02,20,19.20
2015,06,26,02,21,19.20
2015,06,26,02,22,19.20
2015,06,26,02,23,19.20
2015,06,26,02,24,19.20
2015,06,26,02,25,19.20
2015,06,26,02,26,19.10
2015,06,26,02,27,19.10
2015,06,26,02,28,19.10
2015,06,26,02,29,19.10
2015,06,26,02,30,19.00
2015,06,26,02,31,19.00
2015,06,26,02,32,19.00
2015,06,26,02,33,18.90
2015,06,26,02,34,18.90
2015,06,26,02,35,18.90
2015,06,26,02,36,18.90
2015,06,26,02,37,18.90
2015,06,26,02,38,18.90
2015,06,26,02,39,18.90
2015,06,26,02,40,18.90
2015,06,26,02,41,18.90
2015,06,26,02,42,18.90
2015,06,26,02,43,18.90
2015,06,26,02,44,18.90
2015,06,26,02,45,18.90
2015,06,26,02,46,18.90
2015,06,26,02,47,18.90
2015,06,26,02,48,18.90
2015,06,26,02,49,18.90
2015,06,26,02,50,18.90
2015,06,26,02,51,18.90
2015,06,26,02,52,18.90
2015,06,26,02,53,18.90
2015,06,26,02,54,18.90
2015,06,26,02,55,18.90
2015,06,26,02,56,18.80
2015,06,26,02,57,18.80
2015,06,26,02,58,18.80
2015,06,26,02,59,18.80
2015,06,26,03,00,18.80
2015,06,26,03,01,18.70
2015,06,26,03,02,18.70
2015,06,26,03,03,18.70
2015,06,26,03,04,18.60
2015,06,26,03,05,18.60
2015,06,26,03,06,18.50
2015,06,26,03,07,18.50
2015,06,26,03,08,18.40
2015,06,26,03,09,18.40
2015,06,26,03,10,18.40
2015,06,26,03,11,18.40
2015,06,26,03,12,18.30
2015,06,26,03,13,18.30
2015,06,26,03,14,18.30
2015,06,26,03,15,18.30
2015,06,26,03,16,18.30
2015,06,26,03,17,18.30
2015,06,26,03,18,18.30
2015,06,26,03,19,18.30
2015,06,26,03,20,18.30
2015,06,26,03,21,18.30
2015,06,26,03,22,18.20
2015,06,26,03,23,18.30
2015,06,26,03,24,18.30
2015,06,26,03,25,18.30
2015,06,26,03,26,18.30
2015,06,26,03,27,18.40
2015,06,26,03,28,18.40
2015,06,26,03,29,18.40
2015,06,26,03,30,18.40
2015,06,26,03,31,18.40
2015,06,26,03,32,18.40
2015,06,26,03,33,18.40
2015,06,26,03,34,18.40
2015,06,26,03,35,18.40
2015,06,26,03,36,18.40
2015,06,26,03,37,18.40
2015,06,26,03,38,18.40
2015,06,26,03,39,18.40
2015,06,26,03,40,18.40
2015,06,26,03,41,18.40
2015,06,26,03,42,18.40
2015,06,26,03,43,18.40
2015,06,26,03,44,18.40
2015,06,26,03,45,18.40
2015,06,26,03,46,18.40
2015,06,26,03,47,18.40
2015,06,26,03,48,18.40
2015,06,26,03,49,18.40
2015,06,26,03,50,18.30
2015,06,26,03,51,18.30
2015,06,26,03,52,18.30
2015,06,26,03,53,18.30
2015,06,26,03,54,18.30
2015,06,26,03,55,18.30
2015,06,26,03,56,18.30
2015,06,26,03,57,18.30
2015,06,26,03,58,18.30
2015,06,26,03,59,18.30
2015,06,26,04,00,18.30
2015,06,26,04,01,18.30
2015,06,26,04,02,18.30
2015,06,26,04,03,18.20
2015,06,26,04,04,18.20
2015,06,26,04,05,18.20
2015,06,26,04,06,18.20
2015,06,26,04,07,18.20
2015,06,26,04,08,18.20
2015,06,26,04,09,18.20
2015,06,26,04,10,18.20
2015,06,26,04,11,18.10
2015,06,26,04,12,18.10
2015,06,26,04,13,18.10
2015,06,26,04,14,18.00
2015,06,26,04,15,18.00
2015,06,26,04,16,18.00
2015,06,26,04,17,17.90
2015,06,26,04,18,17.90
2015,06,26,04,19,17.90
2015,06,26,04,20,17.80
2015,06,26,04,21,17.80
2015,06,26,04,22,17.80
2015,06,26,04,23,17.80
2015,06,26,04,24,17.70
2015,06,26,04,25,17.70
2015,06,26,04,26,17.70
2015,06,26,04,27,17.70
2015,06,26,04,28,17.60
2015,06,26,04,29,17.60
2015,06,26,04,30,17.60
2015,06,26,04,31,17.60
2015,06,26,04,32,17.60
2015,06,26,04,33,17.60
2015,06,26,04,34,17.60
2015,06,26,04,35,17.60
2015,06,26,04,36,17.60
2015,06,26,04,37,17.60
2015,06,26,04,38,17.60
2015,06,26,04,39,17.60
2015,06,26,04,40,17.60
2015,06,26,04,41,17.50
2015,06,26,04,42,17.50
2015,06,26,04,43,17.50
2015,06,26,04,44,17.50
2015,06,26,04,45,17.40
2015,06,26,04,46,17.40
2015,06,26,04,47,17.40
2015,06,26,04,48,17.40
2015,06,26,04,49,17.30
2015,06,26,04,50,17.30
2015,06,26,04,51,17.30
2015,06,26,04,52,17.20
2015,06,26,04,53,17.20
2015,06,26,04,54,17.20
2015,06,26,04,55,17.20
2015,06,26,04,56,17.10
2015,06,26,04,57,17.10
2015,06,26,04,58,17.10
2015,06,26,04,59,17.10
2015,06,26,05,00,17.10
2015,06,26,05,01,17.00
2015,06,26,05,02,17.00
2015,06,26,05,03,17.00
2015,06,26,05,04,16.90
2015,06,26,05,05,16.90
2015,06,26,05,06,16.90
2015,06,26,05,07,16.90
2015,06,26,05,08,16.90
2015,06,26,05,09,16.90
2015,06,26,05,10,16.90
2015,06,26,05,11,16.90
2015,06,26,05,12,16.90
2015,06,26,05,13,16.90
2015,06,26,05,14,16.90
2015,06,26,05,15,16.90
2015,06,26,05,16,16.90
2015,06,26,05,17,16.90
2015,06,26,05,18,16.90
2015,06,26,05,19,16.90
2015,06,26,05,20,17.00
2015,06,26,05,21,17.00
2015,06,26,05,22,17.00
2015,06,26,05,23,17.10
2015,06,26,05,24,17.10
2015,06,26,05,25,17.10
2015,06,26,05,26,17.20
2015,06,26,05,27,17.20
2015,06,26,05,28,17.20
2015,06,26,05,29,17.20
2015,06,26,05,30,17.20
2015,06,26,05,31,17.20
2015,06,26,05,32,17.20
2015,06,26,05,33,17.20
2015,06,26,05,34,17.20
2015,06,26,05,35,17.20
2015,06,26,05,36,17.20
2015,06,26,05,37,17.20
2015,06,26,05,38,17.20
2015,06,26,05,39,17.20
2015,06,26,05,40,17.20
2015,06,26,05,41,17.20
2015,06,26,05,42,17.20
2015,06,26,05,43,17.20
2015,06,26,05,44,17.20
2015,06,26,05,45,17.20
2015,06,26,05,46,17.20
2015,06,26,05,47,17.20
2015,06,26,05,48,17.20
2015,06,26,05,49,17.20
2015,06,26,05,50,17.20
2015,06,26,05,51,17.20
2015,06,26,05,52,17.20
2015,06,26,05,53,17.20
2015,06,26,05,54,17.20
2015,06,26,05,55,17.20
2015,06,26,05,56,17.20
2015,06,26,05,57,17.20
2015,06,26,05,58,17.20
2015,06,26,05,59,17.20
2015,06,26,06,00,17.20
2015,06,26,06,01,17.20
2015,06,26,06,02,17.20
2015,06,26,06,03,17.20
2015,06,26,06,04,17.30
2015,06,26,06,05,17.30
2015,06,26,06,06,17.30
2015,06,26,06,07,17.30
2015,06,26,06,08,17.30
2015,06,26,06,09,17.30
2015,06,26,06,10,17.40
2015,06,26,06,11,17.50
2015,06,26,06,12,17.50
2015,06,26,06,13,17.60
2015,06,26,06,14,17.60
2015,06,26,06,15,17.70
2015,06,26,06,16,17.70
2015,06,26,06,17,17.80
2015,06,26,06,18,17.90
2015,06,26,06,19,17.90
2015,06,26,06,20,18.00
2015,06,26,06,21,18.10
2015,06,26,06,22,18.20
2015,06,26,06,23,18.20
2015,06,26,06,24,18.30
2015,06,26,06,25,18.40
2015,06,26,06,26,18.50
2015,06,26,06,27,18.50
2015,06,26,06,28,18.60
2015,06,26,06,29,18.70
2015,06,26,06,30,18.70
2015,06,26,06,31,18.80
2015,06,26,06,32,18.80
2015,06,26,06,33,18.90
2015,06,26,06,34,18.90
2015,06,26,06,35,18.90
2015,06,26,06,36,18.90
2015,06,26,06,37,19.00
2015,06,26,06,38,19.00
2015,06,26,06,39,19.00
2015,06,26,06,40,19.10
2015,06,26,06,41,19.10
2015,06,26,06,42,19.10
2015,06,26,06,43,19.10
2015,06,26,06,44,19.10
2015,06,26,06,45,19.10
2015,06,26,06,46,19.10
2015,06,26,06,47,19.10
2015,06,26,06,48,19.10
2015,06,26,06,49,19.10
2015,06,26,06,50,19.10
2015,06,26,06,51,19.10
2015,06,26,06,52,19.10
2015,06,26,06,53,19.10
2015,06,26,06,54,19.10
2015,06,26,06,55,19.20
2015,06,26,06,56,19.20
2015,06,26,06,57,19.20
2015,06,26,06,58,19.20
2015,06,26,06,59,19.20
2015,06,26,07,00,19.20
2015,06,26,07,01,19.20
2015,06,26,07,02,19.20
2015,06,26,07,03,19.20
2015,06,26,07,04,19.20
2015,06,26,07,05,19.20
2015,06,26,07,06,19.20
2015,06,26,07,07,19.20
2015,06,26,07,08,19.20
2015,06,26,07,09,19.20
2015,06,26,07,10,19.30
2015,06,26,07,11,19.30
2015,06,26,07,12,19.30
2015,06,26,07,13,19.40
2015,06,26,07,14,19.40
2015,06,26,07,15,19.40
2015,06,26,07,16,19.50
2015,06,26,07,17,19.60
2015,06,26,07,18,19.60
2015,06,26,07,19,19.60
2015,06,26,07,20,19.70
2015,06,26,07,21,19.70
2015,06,26,07,22,19.70
2015,06,26,07,23,19.80
2015,06,26,07,24,19.80
2015,06,26,07,25,19.90
2015,06,26,07,26,19.90
2015,06,26,07,27,19.90
2015,06,26,07,28,20.00
2015,06,26,07,29,20.00
2015,06,26,07,30,20.00
2015,06,26,07,31,20.10
2015,06,26,07,32,20.10
2015,06,26,07,33,20.10
2015,06,26,07,34,20.10
2015,06,26,07,35,20.20
2015,06,26,07,36,20.20
2015,06,26,07,37,20.30
2015,06,26,07,38,20.30
2015,06,26,07,39,20.30
2015,06,26,07,40,20.40
2015,06,26,07,41,20.30
2015,06,26,07,42,20.40
2015,06,26,07,43,20.40
2015,06,26,07,44,20.40
2015,06,26,07,45,20.40
2015,06,26,07,46,20.30
2015,06,26,07,47,20.30
2015,06,26,07,48,20.30
2015,06,26,07,49,20.30
2015,06,26,07,50,20.30
2015,06,26,07,51,20.40
2015,06,26,07,52,20.40
2015,06,26,07,53,20.40
2015,06,26,07,54,20.50
2015,06,26,07,55,20.50
2015,06,26,07,56,20.50
2015,06,26,07,57,20.50
2015,06,26,07,58,20.50
2015,06,26,07,59,20.50
2015,06,26,08,00,20.50
2015,06,26,08,01,20.50
2015,06,26,08,02,20.50
2015,06,26,08,03,20.50
2015,06,26,08,04,20.60
2015,06,26,08,05,20.60
2015,06,26,08,06,20.60
2015,06,26,08,07,20.60
2015,06,26,08,08,20.60
2015,06,26,08,09,20.70
2015,06,26,08,10,20.70
2015,06,26,08,11,20.70
2015,06,26,08,12,20.60
2015,06,26,08,13,20.60
2015,06,26,08,14,20.60
2015,06,26,08,15,20.60
2015,06,26,08,16,20.60
2015,06,26,08,17,20.50
2015,06,26,08,18,20.50
2015,06,26,08,19,20.50
2015,06,26,08,20,20.50
2015,06,26,08,21,20.40
2015,06,26,08,22,20.50
2015,06,26,08,23,20.50
2015,06,26,08,24,20.50
2015,06,26,08,25,20.60
2015,06,26,08,26,20.60
2015,06,26,08,27,20.60
2015,06,26,08,28,20.70
2015,06,26,08,29,20.70
2015,06,26,08,30,20.70
2015,06,26,08,31,20.70
2015,06,26,08,32,20.60
2015,06,26,08,33,20.60
2015,06,26,08,34,20.60
2015,06,26,08,35,20.60
2015,06,26,08,36,20.60
2015,06,26,08,37,20.60
2015,06,26,08,38,20.60
2015,06,26,08,39,20.60
2015,06,26,08,40,20.60
2015,06,26,08,41,20.60
2015,06,26,08,42,20.60
2015,06,26,08,43,20.70
2015,06,26,08,44,20.70
2015,06,26,08,45,20.70
2015,06,26,08,46,20.70
2015,06,26,08,47,20.80
2015,06,26,08,48,20.80
2015,06,26,08,49,20.80
2015,06,26,08,50,20.70
2015,06,26,08,51,20.80
2015,06,26,08,52,20.80
2015,06,26,08,53,20.80
2015,06,26,08,54,20.80
2015,06,26,08,55,20.80
2015,06,26,08,56,20.80
2015,06,26,08,57,20.80
2015,06,26,08,58,20.80
2015,06,26,08,59,20.80
2015,06,26,09,00,20.80
2015,06,26,09,01,20.80
2015,06,26,09,02,20.80
2015,06,26,09,03,20.80
2015,06,26,09,04,20.90
2015,06,26,09,05,20.90
2015,06,26,09,06,20.90
2015,06,26,09,07,20.90
2015,06,26,09,08,20.90
2015,06,26,09,09,20.90
2015,06,26,09,10,21.00
2015,06,26,09,11,21.00
2015,06,26,09,12,21.00
2015,06,26,09,13,21.00
2015,06,26,09,14,21.00
2015,06,26,09,15,21.00
2015,06,26,09,16,21.00
2015,06,26,09,17,21.00
2015,06,26,09,18,21.00
2015,06,26,09,19,21.10
2015,06,26,09,20,21.10
2015,06,26,09,21,21.20
2015,06,26,09,22,21.30
2015,06,26,09,23,21.30
2015,06,26,09,24,21.30
2015,06,26,09,25,21.30
2015,06,26,09,26,21.40
2015,06,26,09,27,21.40
2015,06,26,09,28,21.40
2015,06,26,09,29,21.40
2015,06,26,09,30,21.40
2015,06,26,09,31,21.40
2015,06,26,09,32,21.40
2015,06,26,09,33,21.50
2015,06,26,09,34,21.40
2015,06,26,09,35,21.40
2015,06,26,09,36,21.50
2015,06,26,09,37,21.50
2015,06,26,09,38,21.40
2015,06,26,09,39,21.40
2015,06,26,09,40,21.40
2015,06,26,09,41,21.40
2015,06,26,09,42,21.50
2015,06,26,09,43,21.50
2015,06,26,09,44,21.50
2015,06,26,09,45,21.50
2015,06,26,09,46,21.50
2015,06,26,09,47,21.50
2015,06,26,09,48,21.50
2015,06,26,09,49,21.60
2015,06,26,09,50,21.70
2015,06,26,09,51,21.80
2015,06,26,09,52,21.80
2015,06,26,09,53,21.80
2015,06,26,09,54,21.90
2015,06,26,09,55,21.90
2015,06,26,09,56,22.00
2015,06,26,09,57,22.10
2015,06,26,09,58,22.10
2015,06,26,09,59,22.10
2015,06,26,10,00,22.10
2015,06,26,10,01,22.20
2015,06,26,10,02,22.20
2015,06,26,10,03,22.30
2015,06,26,10,04,22.40
2015,06,26,10,05,22.40
2015,06,26,10,06,22.40
2015,06,26,10,07,22.40
2015,06,26,10,08,22.40
2015,06,26,10,09,22.40
2015,06,26,10,10,22.40
2015,06,26,10,11,22.30
2015,06,26,10,12,22.30
2015,06,26,10,13,22.30
2015,06,26,10,14,22.30
2015,06,26,10,15,22.30
2015,06,26,10,16,22.40
2015,06,26,10,17,22.40
2015,06,26,10,18,22.50
2015,06,26,10,19,22.60
2015,06,26,10,20,22.60
2015,06,26,10,21,22.60
2015,06,26,10,22,22.60
2015,06,26,10,23,22.60
2015,06,26,10,24,22.60
2015,06,26,10,25,22.60
2015,06,26,10,26,22.50
2015,06,26,10,27,22.50
2015,06,26,10,28,22.50
2015,06,26,10,29,22.60
2015,06,26,10,30,22.70
2015,06,26,10,31,22.80
2015,06,26,10,32,22.90
2015,06,26,10,33,23.00
2015,06,26,10,34,23.10
2015,06,26,10,35,23.20
2015,06,26,10,36,23.30
2015,06,26,10,37,23.40
2015,06,26,10,38,23.50
2015,06,26,10,39,23.50
2015,06,26,10,40,23.60
2015,06,26,10,41,23.70
2015,06,26,10,42,23.70
2015,06,26,10,43,23.70
2015,06,26,10,44,23.80
2015,06,26,10,45,23.80
2015,06,26,10,46,23.80
2015,06,26,10,47,23.80
2015,06,26,10,48,23.80
2015,06,26,10,49,23.80
2015,06,26,10,50,23.80
2015,06,26,10,51,23.80
2015,06,26,10,52,23.80
2015,06,26,10,53,23.80
2015,06,26,10,54,23.80
2015,06,26,10,55,23.80
2015,06,26,10,56,23.80
2015,06,26,10,57,23.70
2015,06,26,10,58,23.60
2015,06,26,10,59,23.50
2015,06,26,11,00,23.50
2015,06,26,11,01,23.50
2015,06,26,11,02,23.50
2015,06,26,11,03,23.60
2015,06,26,11,04,23.60
2015,06,26,11,05,23.70
2015,06,26,11,06,23.80
2015,06,26,11,07,23.90
2015,06,26,11,08,23.90
2015,06,26,11,09,23.80
2015,06,26,11,10,23.80
2015,06,26,11,11,23.80
2015,06,26,11,12,23.70
2015,06,26,11,13,23.70
2015,06,26,11,14,23.70
2015,06,26,11,15,23.80
2015,06,26,11,16,23.90
2015,06,26,11,17,24.00
2015,06,26,11,18,24.10
2015,06,26,11,19,24.10
2015,06,26,11,20,24.10
2015,06,26,11,21,24.10
2015,06,26,11,22,24.10
2015,06,26,11,23,24.10
2015,06,26,11,24,24.10
2015,06,26,11,25,24.10
2015,06,26,11,26,24.10
2015,06,26,11,27,24.10
2015,06,26,11,28,24.10
2015,06,26,11,29,24.10
2015,06,26,11,30,24.10
2015,06,26,11,31,24.10
2015,06,26,11,32,24.10
2015,06,26,11,33,24.10
2015,06,26,11,34,24.10
2015,06,26,11,35,24.10
2015,06,26,11,36,24.00
2015,06,26,11,37,23.90
2015,06,26,11,38,23.90
2015,06,26,11,39,23.90
2015,06,26,11,40,24.00
2015,06,26,11,41,24.10
2015,06,26,11,42,24.10
2015,06,26,11,43,24.20
2015,06,26,11,44,24.20
2015,06,26,11,45,24.20
2015,06,26,11,46,24.20
2015,06,26,11,47,24.20
2015,06,26,11,48,24.20
2015,06,26,11,49,24.20
2015,06,26,11,50,24.20
2015,06,26,11,51,24.20
2015,06,26,11,52,24.20
2015,06,26,11,53,24.20
2015,06,26,11,54,24.20
2015,06,26,11,55,24.10
2015,06,26,11,56,24.10
2015,06,26,11,57,24.10
2015,06,26,11,58,24.00
2015,06,26,11,59,24.10
2015,06,26,12,00,24.10
2015,06,26,12,01,24.20
2015,06,26,12,02,24.30
2015,06,26,12,03,24.30
2015,06,26,12,04,24.30
2015,06,26,12,05,24.30
2015,06,26,12,06,24.20
2015,06,26,12,07,24.10
2015,06,26,12,08,24.10
2015,06,26,12,09,24.10
2015,06,26,12,10,24.20
2015,06,26,12,11,24.20
2015,06,26,12,12,24.20
2015,06,26,12,13,24.30
2015,06,26,12,14,24.40
2015,06,26,12,15,24.50
2015,06,26,12,16,24.50
2015,06,26,12,17,24.50
2015,06,26,12,18,24.60
2015,06,26,12,19,24.70
2015,06,26,12,20,24.80
2015,06,26,12,21,24.90
2015,06,26,12,22,24.90
2015,06,26,12,23,24.90
2015,06,26,12,24,25.00
2015,06,26,12,25,25.00
2015,06,26,12,26,25.10
2015,06,26,12,27,25.10
2015,06,26,12,28,25.00
2015,06,26,12,29,25.00
2015,06,26,12,30,25.00
2015,06,26,12,31,25.10
2015,06,26,12,32,25.20
2015,06,26,12,33,25.20
2015,06,26,12,34,25.20
2015,06,26,12,35,25.20
2015,06,26,12,36,25.20
2015,06,26,12,37,25.30
2015,06,26,12,38,25.40
2015,06,26,12,39,25.40
2015,06,26,12,40,25.50
2015,06,26,12,41,25.50
2015,06,26,12,42,25.40
2015,06,26,12,43,25.30
2015,06,26,12,44,25.20
2015,06,26,12,45,25.10
2015,06,26,12,46,25.10
2015,06,26,12,47,25.10
2015,06,26,12,48,25.10
2015,06,26,12,49,25.10
2015,06,26,12,50,25.10
2015,06,26,12,51,25.10
2015,06,26,12,52,25.10
2015,06,26,12,53,25.10
2015,06,26,12,54,25.00
2015,06,26,12,55,25.00
2015,06,26,12,56,24.90
2015,06,26,12,57,25.00
2015,06,26,12,58,25.00
2015,06,26,12,59,25.10
2015,06,26,13,00,25.20
2015,06,26,13,01,25.30
2015,06,26,13,02,25.40
2015,06,26,13,03,25.40
2015,06,26,13,04,25.40
2015,06,26,13,05,25.50
2015,06,26,13,06,25.50
2015,06,26,13,07,25.40
2015,06,26,13,08,25.30
2015,06,26,13,09,25.30
2015,06,26,13,10,25.40
2015,06,26,13,11,25.50
2015,06,26,13,12,25.60
2015,06,26,13,13,25.70
2015,06,26,13,14,25.80
2015,06,26,13,15,25.80
2015,06,26,13,16,25.90
2015,06,26,13,17,25.90
2015,06,26,13,18,25.90
2015,06,26,13,19,26.00
2015,06,26,13,20,26.00
2015,06,26,13,21,26.00
2015,06,26,13,22,26.10
2015,06,26,13,23,26.00
2015,06,26,13,24,26.00
2015,06,26,13,25,26.00
2015,06,26,13,26,26.00
2015,06,26,13,27,26.00
2015,06,26,13,28,25.90
2015,06,26,13,29,25.70
2015,06,26,13,30,25.60
2015,06,26,13,31,25.60
2015,06,26,13,32,25.50
2015,06,26,13,33,25.50
2015,06,26,13,34,25.50
2015,06,26,13,35,25.50
2015,06,26,13,36,25.50
2015,06,26,13,37,25.50
2015,06,26,13,38,25.60
2015,06,26,13,39,25.70
2015,06,26,13,40,25.80
2015,06,26,13,41,25.90
2015,06,26,13,42,26.00
2015,06,26,13,43,26.10
2015,06,26,13,44,26.20
2015,06,26,13,45,26.20
2015,06,26,13,46,26.30
2015,06,26,13,47,26.40
2015,06,26,13,48,26.50
2015,06,26,13,49,26.60
2015,06,26,13,50,26.60
2015,06,26,13,51,26.60
2015,06,26,13,52,26.60
2015,06,26,13,53,26.60
2015,06,26,13,54,26.60
2015,06,26,13,55,26.70
2015,06,26,13,56,26.70
2015,06,26,13,57,26.60
2015,06,26,13,58,26.70
2015,06,26,13,59,26.80
2015,06,26,14,00,26.90
2015,06,26,14,01,27.00
2015,06,26,14,02,27.10
2015,06,26,14,03,27.10
2015,06,26,14,04,27.10
2015,06,26,14,05,27.10
2015,06,26,14,06,27.10
2015,06,26,14,07,27.20
2015,06,26,14,08,27.30
2015,06,26,14,09,27.20
2015,06,26,14,10,27.10
2015,06,26,14,11,27.00
2015,06,26,14,12,26.90
2015,06,26,14,13,26.80
2015,06,26,14,14,26.80
2015,06,26,14,15,26.80
2015,06,26,14,16,26.80
2015,06,26,14,17,26.80
2015,06,26,14,18,26.80
2015,06,26,14,19,26.80
2015,06,26,14,20,26.90
2015,06,26,14,21,26.90
2015,06,26,14,22,26.90
2015,06,26,14,23,27.00
2015,06,26,14,24,27.00
2015,06,26,14,25,27.10
2015,06,26,14,26,27.20
2015,06,26,14,27,27.20
2015,06,26,14,28,27.20
2015,06,26,14,29,27.20
2015,06,26,14,30,27.10
2015,06,26,14,31,27.00
2015,06,26,14,32,26.80
2015,06,26,14,33,26.70
2015,06,26,14,34,26.80
2015,06,26,14,35,26.80
2015,06,26,14,36,26.80
2015,06,26,14,37,26.80
2015,06,26,14,38,26.70
2015,06,26,14,39,26.70
2015,06,26,14,40,26.70
2015,06,26,14,41,26.70
2015,06,26,14,42,26.70
2015,06,26,14,43,26.80
2015,06,26,14,44,26.80
2015,06,26,14,45,26.90
2015,06,26,14,46,26.90
2015,06,26,14,47,27.00
2015,06,26,14,48,27.10
2015,06,26,14,49,27.10
2015,06,26,14,50,27.10
2015,06,26,14,51,27.20
2015,06,26,14,52,27.30
2015,06,26,14,53,27.30
2015,06,26,14,54,27.40
2015,06,26,14,55,27.50
2015,06,26,14,56,27.60
2015,06,26,14,57,27.60
2015,06,26,14,58,27.60
2015,06,26,14,59,27.60
2015,06,26,15,00,27.60
2015,06,26,15,01,27.60
2015,06,26,15,02,27.60
2015,06,26,15,03,27.70
2015,06,26,15,04,27.80
2015,06,26,15,05,27.80
2015,06,26,15,06,27.90
2015,06,26,15,07,28.00
2015,06,26,15,08,28.00
2015,06,26,15,09,28.00
2015,06,26,15,10,28.00
2015,06,26,15,11,28.10
2015,06,26,15,12,28.10
2015,06,26,15,13,28.10
2015,06,26,15,14,28.10
2015,06,26,15,15,28.00
2015,06,26,15,16,27.90
2015,06,26,15,17,27.90
2015,06,26,15,18,27.80
2015,06,26,15,19,27.80
2015,06,26,15,20,27.70
2015,06,26,15,21,27.70
2015,06,26,15,22,27.80
2015,06,26,15,23,27.80
2015,06,26,15,24,27.80
2015,06,26,15,25,27.80
2015,06,26,15,26,27.70
2015,06,26,15,27,27.70
2015,06,26,15,28,27.80
2015,06,26,15,29,27.80
2015,06,26,15,30,27.90
2015,06,26,15,31,28.00
2015,06,26,15,32,28.00
2015,06,26,15,33,27.90
2015,06,26,15,34,27.90
2015,06,26,15,35,27.90
2015,06,26,15,36,27.80
2015,06,26,15,37,27.90
2015,06,26,15,38,27.90
2015,06,26,15,39,27.80
2015,06,26,15,40,27.80
2015,06,26,15,41,27.80
2015,06,26,15,42,27.90
2015,06,26,15,43,28.00
2015,06,26,15,44,28.00
2015,06,26,15,45,28.00
2015,06,26,15,46,27.90
2015,06,26,15,47,27.80
2015,06,26,15,48,27.80
2015,06,26,15,49,27.80
2015,06,26,15,50,27.80
2015,06,26,15,51,27.80
2015,06,26,15,52,27.90
2015,06,26,15,53,28.00
2015,06,26,15,54,28.10
2015,06,26,15,55,28.10
2015,06,26,15,56,28.10
2015,06,26,15,57,28.20
2015,06,26,15,58,28.20
2015,06,26,15,59,28.20
2015,06,26,16,00,28.20
2015,06,26,16,01,28.20
2015,06,26,16,02,28.10
2015,06,26,16,03,28.10
2015,06,26,16,04,28.00
2015,06,26,16,05,27.90
2015,06,26,16,06,27.90
2015,06,26,16,07,27.90
2015,06,26,16,08,27.90
2015,06,26,16,09,28.00
2015,06,26,16,10,28.00
2015,06,26,16,11,28.10
2015,06,26,16,12,28.10
2015,06,26,16,13,28.10
2015,06,26,16,14,28.10
2015,06,26,16,15,28.00
2015,06,26,16,16,27.90
2015,06,26,16,17,27.80
2015,06,26,16,18,27.70
2015,06,26,16,19,27.70
2015,06,26,16,20,27.60
2015,06,26,16,21,27.60
2015,06,26,16,22,27.50
2015,06,26,16,23,27.50
2015,06,26,16,24,27.60
2015,06,26,16,25,27.60
2015,06,26,16,26,27.60
2015,06,26,16,27,27.70
2015,06,26,16,28,27.70
2015,06,26,16,29,27.70
2015,06,26,16,30,27.80
2015,06,26,16,31,27.80
2015,06,26,16,32,27.80
2015,06,26,16,33,27.90
2015,06,26,16,34,27.90
2015,06,26,16,35,27.90
2015,06,26,16,36,27.80
2015,06,26,16,37,27.90
2015,06,26,16,38,27.90
2015,06,26,16,39,27.80
2015,06,26,16,40,27.80
2015,06,26,16,41,27.70
2015,06,26,16,42,27.70
2015,06,26,16,43,27.60
2015,06,26,16,44,27.50
2015,06,26,16,45,27.50
2015,06,26,16,46,27.40
2015,06,26,16,47,27.40
2015,06,26,16,48,27.40
2015,06,26,16,49,27.40
2015,06,26,16,50,27.50
2015,06,26,16,51,27.60
2015,06,26,16,52,27.80
2015,06,26,16,53,27.80
2015,06,26,16,54,27.80
2015,06,26,16,55,27.90
2015,06,26,16,56,27.90
2015,06,26,16,57,27.90
2015,06,26,16,58,28.00
2015,06,26,16,59,28.10
2015,06,26,17,00,28.00
2015,06,26,17,01,28.00
2015,06,26,17,02,28.00
2015,06,26,17,03,28.00
2015,06,26,17,04,28.00
2015,06,26,17,05,28.00
2015,06,26,17,06,28.10
2015,06,26,17,07,28.20
2015,06,26,17,08,28.30
2015,06,26,17,09,28.30
2015,06,26,17,10,28.30
2015,06,26,17,11,28.40
2015,06,26,17,12,28.40
2015,06,26,17,13,28.40
2015,06,26,17,14,28.30
2015,06,26,17,15,28.30
2015,06,26,17,16,28.40
2015,06,26,17,17,28.40
2015,06,26,17,18,28.50
2015,06,26,17,19,28.60